Location: Gerlach
(40.6516°N, 119.3568°W)
Time: 01:33:50
(UTC-08:00)

Transit 2A Rocket - All Passes

Search period start: 28 January 2023 00:00
Search period end: 07 February 2023 00:00
Orbit: 585 x 914 km, 66.7° (Epoch: 27 January)

Date Brightness Start Highest point End Pass type
(mag) Time Alt. Az. Time Alt. Az. Time Alt. Az.
28 Jan - 01:37:28 10° WSW 01:42:03 39° NW 01:47:05 10° NNE night (unlit)
28 Jan - 08:38:06 10° N 08:43:09 27° NE 08:48:17 10° ESE daylight
28 Jan - 10:20:12 10° NW 10:26:07 58° WSW 10:32:04 10° SSE daylight
28 Jan - 23:14:39 10° SE 23:17:06 14° ESE 23:19:40 10° ENE night (unlit)
29 Jan - 00:54:03 10° SW 00:58:51 68° WNW 01:04:12 10° NNE night (unlit)
29 Jan - 02:40:16 10° WNW 02:42:36 13° NW 02:45:01 10° N night (unlit)
29 Jan - 07:55:35 10° N 07:59:41 19° NE 08:03:49 10° E daylight
29 Jan - 09:37:03 10° NNW 09:43:07 86° ENE 09:49:13 10° SSE daylight
29 Jan - 11:21:42 10° WNW 11:24:58 15° WSW 11:28:13 10° SW daylight
30 Jan - 00:11:04 10° SSW 00:15:49 68° ESE 00:21:06 10° NE night (unlit)
30 Jan - 01:55:23 10° W 01:59:00 19° NW 02:02:53 10° N night (unlit)
30 Jan - 07:13:31 10° N 07:16:03 13° NE 07:18:37 10° ENE daylight
30 Jan - 08:54:04 10° NNW 08:59:59 54° NE 09:05:57 10° SE daylight
30 Jan - 10:37:22 10° NW 10:42:15 26° WSW 10:47:08 10° SSW daylight
30 Jan - 23:28:33 10° S 23:32:56 37° ESE 23:37:45 10° NE night (unlit)
31 Jan - 01:11:13 10° WSW 01:15:34 30° NW 01:20:19 10° NNE night (unlit)
31 Jan - 08:11:15 10° NNW 08:16:43 35° NE 08:22:15 10° ESE daylight
31 Jan - 09:53:44 10° NW 09:59:26 43° WSW 10:05:07 10° S daylight
31 Jan - 22:46:41 10° SSE 22:50:12 20° ESE 22:53:58 10° ENE night (unlit)
01 Feb - 00:27:31 10° SW 00:32:16 49° NW 00:37:31 10° NNE night (unlit)
01 Feb - 02:15:37 10° NW 02:16:20 10° NNW 02:17:04 10° NNW night (unlit)
01 Feb - 07:28:36 10° N 07:33:19 23° NE 07:38:06 10° E daylight
01 Feb - 09:10:27 10° NNW 09:16:29 72° WSW 09:22:32 10° SSE daylight
01 Feb - 10:57:31 10° W 10:58:05 10° W 10:58:38 10° WSW daylight
01 Feb - 22:06:34 10° ESE 22:07:35 11° E 22:08:38 10° E night (unlit)
01 Feb - 23:44:17 10° SSW 23:49:08 86° WNW 23:54:33 10° NNE night (unlit)
02 Feb - 01:29:37 10° WNW 01:32:39 15° NW 01:35:50 10° N night (unlit)
02 Feb - 06:46:12 10° N 06:49:47 16° NE 06:53:24 10° ENE daylight
02 Feb - 08:27:22 10° NNW 08:33:25 72° ENE 08:39:30 10° SE daylight
02 Feb - 10:11:21 10° WNW 10:15:26 19° WSW 10:19:31 10° SSW daylight
02 Feb - 23:01:28 10° S 23:06:09 53° ESE 23:11:21 10° NE night (unlit)
03 Feb - 00:45:05 10° W 00:49:07 23° NW 00:53:27 10° N night (unlit)
03 Feb - 06:04:36 10° NNE 06:06:05 11° NNE 06:07:35 10° NE visible
03 Feb - 07:44:27 10° NNW 07:50:14 45° NE 07:56:03 10° SE daylight
03 Feb - 09:27:24 10° NW 09:32:41 32° WSW 09:37:57 10° S daylight
03 Feb - 22:19:10 10° SSE 22:23:20 29° ESE 22:27:51 10° NE night (unlit)
04 Feb - 00:01:08 10° WSW 00:05:44 37° NW 00:10:46 10° NNE night (unlit)
04 Feb - 07:01:41 10° NNW 07:06:55 30° NE 07:12:10 10° ESE daylight
04 Feb - 08:43:55 10° NW 08:49:48 53° WSW 08:55:40 10° S daylight
04 Feb - 21:37:42 10° SE 21:40:39 16° ESE 21:43:45 10° ENE night (unlit)
04 Feb - 23:17:38 10° SW 23:22:29 62° WNW 23:27:53 10° NNE night (unlit)
05 Feb - 01:04:12 10° WNW 01:06:20 12° NW 01:08:34 10° N night (unlit)
05 Feb - 06:19:06 10° N 06:23:27 20° NE 06:27:50 10° E visible
05 Feb - 08:00:43 10° NNW 08:06:49 87° WSW 08:12:53 10° SSE daylight
05 Feb - 09:45:48 10° WNW 09:48:34 13° WSW 09:51:19 10° SW daylight
05 Feb - 22:34:33 10° SSW 22:39:25 76° ESE 22:44:50 10° NNE night (unlit)
06 Feb - 00:19:09 10° W 00:22:43 18° NW 00:26:30 10° N night (unlit)
06 Feb - 05:36:53 10° N 05:39:50 14° NE 05:42:49 10° ENE visible
06 Feb - 07:17:41 10° NNW 07:23:42 59° ENE 07:29:40 10° SE daylight
06 Feb - 09:01:11 10° NW 09:05:52 24° WSW 09:10:31 10° SSW daylight
06 Feb - 21:51:56 10° S 21:56:30 42° ESE 22:01:32 10° NE night (unlit)
06 Feb - 23:34:53 10° WSW 23:39:14 28° NW 23:43:57 10° N night (unlit)
